TimeCST,TemperatureF,Dew PointF,Humidity,Sea Level PressureIn,VisibilityMPH,Wind Direction,Wind SpeedMPH,Gust SpeedMPH,PrecipitationIn,Events,Conditions,WindDirDegrees,DateUTC
12:00 AM,66,59,71,30.07,6,Calm,Calm,,,,Haze,,2013-08-07 06:00:00
12:00 AM,66.2,59.0,78,30.15,6.2,Calm,Calm,-,N/A,,Partly Cloudy,0,2013-08-07 06:00:00
1:00 AM,62.6,59.0,88,30.12,6.2,Calm,Calm,-,N/A,,Partly Cloudy,0,2013-08-07 07:00:00
2:00 AM,60.8,59.0,94,30.12,6.2,Calm,Calm,-,N/A,,Partly Cloudy,0,2013-08-07 08:00:00
3:00 AM,61,59,92,29.88,6,Calm,Calm,,,,Haze,,2013-08-07 09:00:00
3:00 AM,60.8,59.0,94,30.09,6.2,Calm,Calm,-,N/A,,Scattered Clouds,0,2013-08-07 09:00:00
4:00 AM,60.8,59.0,94,30.09,6.2,Calm,Calm,-,N/A,,Partly Cloudy,0,2013-08-07 10:00:00
5:00 AM,62.6,60.8,94,30.12,6.2,Calm,Calm,-,N/A,,Scattered Clouds,0,2013-08-07 11:00:00
6:00 AM,62,61,97,30.04,5,Calm,Calm,,,,Mist,,2013-08-07 12:00:00
6:00 AM,62.6,60.8,94,30.12,5.0,Calm,Calm,-,N/A,,Mostly Cloudy,0,2013-08-07 12:00:00
7:00 AM,69.8,66.2,88,30.12,5.0,Calm,Calm,-,N/A,,Mostly Cloudy,0,2013-08-07 13:00:00
8:00 AM,73.4,66.2,78,30.12,5.6,North,5.8,-,N/A,,Scattered Clouds,10,2013-08-07 14:00:00
9:00 AM,77,65,57,29.98,6,NNE,9.2,,,,Haze,20,2013-08-07 15:00:00
9:00 AM,78.8,60.8,54,30.09,6.2,North,6.9,-,N/A,,Partly Cloudy,10,2013-08-07 15:00:00
10:00 AM,78.8,60.8,54,30.09,6.2,North,6.9,-,N/A,,Partly Cloudy,10,2013-08-07 16:00:00
11:00 AM,82.4,59.0,45,30.09,6.2,North,9.2,-,N/A,,Partly Cloudy,360,2013-08-07 17:00:00
12:00 PM,87,59,28,29.87,7,North,5.8,,,,Haze,0,2013-08-07 18:00:00
12:00 PM,86.0,59.0,40,30.06,6.2,North,5.8,-,N/A,,Partly Cloudy,360,2013-08-07 18:00:00
2:00 PM,84.2,55.4,37,30.06,6.2,ESE,6.9,-,N/A,,Partly Cloudy,120,2013-08-07 20:00:00
3:00 PM,85,55,25,29.86,7,ENE,6.9,,,,Haze,60,2013-08-07 21:00:00
3:00 PM,84.2,55.4,37,30.06,6.2,ENE,6.9,-,N/A,,Scattered Clouds,60,2013-08-07 21:00:00
4:00 PM,86.0,53.6,33,30.09,6.2,East,6.9,-,N/A,,Partly Cloudy,90,2013-08-07 22:00:00
5:00 PM,84.2,57.2,40,30.12,6.2,SSE,11.5,-,N/A,,Partly Cloudy,160,2013-08-07 23:00:00
6:00 PM,,54,,29.90,7,NNE,85.2,,,,Haze,20,2013-08-08 00:00:00
6:00 PM,80.6,53.6,39,30.06,6.2,SE,11.5,-,N/A,,Partly Cloudy,140,2013-08-08 00:00:00
7:00 PM,77.0,59.0,54,30.06,6.2,East,9.2,-,N/A,,Partly Cloudy,90,2013-08-08 01:00:00
8:00 PM,75.2,60.8,61,30.09,6.2,North,3.5,-,N/A,,Partly Cloudy,360,2013-08-08 02:00:00
9:00 PM,72,56,47,29.88,6,North,6.9,,,,Haze,0,2013-08-08 03:00:00
9:00 PM,71.6,55.4,57,30.09,6.2,North,6.9,-,N/A,,Partly Cloudy,360,2013-08-08 03:00:00
10:00 PM,69.8,55.4,60,30.12,6.2,ENE,3.5,-,N/A,,Clear,60,2013-08-08 04:00:00
11:00 PM,66.2,57.2,73,30.09,6.2,East,2.3,-,N/A,,Clear,90,2013-08-08 05:00:00